FW0598 Weather Reports


time (UTC)temp
C
wind
direction
speed
KPH
gust
KPH
rain 1hr
cm
rain 24hr
cm
rain mn
cm
humidity
%
barometer
mb
20260510094600 7 58 0.0 0.0 0.00 0.00 0.00 83 1022.5
20260510094502 7 58 0.0 0.0 0.00 0.00 0.00 83 1022.5
20260510093041 7 58 0.0 0.0 0.00 0.00 0.00 83 1022.3
20260510091539 7 58 0.0 0.0 0.00 0.00 0.00 83 1022.0
20260510090021 8 58 0.0 0.0 0.00 0.00 0.00 81 1021.8
20260510084518 9 58 0.0 0.0 0.00 0.00 0.00 80 1021.6
20260510083056 10 58 0.0 0.0 0.00 0.00 0.00 79 1021.4
20260510081618 10 58 0.0 0.0 0.00 0.00 0.00 78 1021.0
20260510080035 11 58 0.0 0.0 0.00 0.00 0.00 79 1020.7
20260510074535 12 58 0.0 0.0 0.00 0.00 0.00 79 1020.5
20260510073014 13 58 0.0 0.0 0.00 0.00 0.00 78 1020.2
20260510071514 14 58 0.0 0.0 0.00 0.00 0.00 79 1020.0
20260510070057 15 58 0.0 0.0 0.00 0.00 0.00 78 1019.7
20260510064554 15 59 0.0 0.0 0.00 0.00 0.00 76 1019.4
20260510063037 15 36 0.0 0.0 0.00 0.00 0.00 74 1019.2
20260510061538 16 223 0.0 0.0 0.00 0.00 0.00 73 1019.0
20260510060040 16 123 0.0 3.2 0.00 0.00 0.00 73 1018.7
20260510054518 16 23 0.0 17.7 0.00 0.00 0.00 68 1018.6
20260510053109 17 13 0.0 9.7 0.00 0.00 0.00 67 1018.5
20260510051649 17 13 0.0 3.2 0.00 0.00 0.00 66 1018.2
20260510050040 17 61 0.0 1.6 0.00 0.00 0.00 64 1018.2
20260510044542 18 19 0.0 0.0 0.00 0.00 0.00 63 1018.0
20260510043022 18 41 0.0 11.3 0.00 0.00 0.00 62 1017.9
20260510041525 18 167 0.0 1.6 0.00 0.00 0.00 59 1017.9
20260510040101 18 38 0.0 0.0 0.00 0.00 0.00 59 1017.9
20260510034558 18 168 0.0 0.0 0.00 0.00 0.00 62 1017.9
20260510033041 18 19 0.0 0.0 0.00 0.00 0.00 62 1018.0
20260510031607 18 135 0.0 0.0 0.00 0.00 0.00 62 1018.1
20260510030022 18 60 0.0 0.0 0.00 0.00 0.00 64 1018.2
20260510024520 18 16 0.0 0.0 0.00 0.00 0.00 65 1018.3
20260510023034 18 30 0.0 0.0 0.00 0.00 0.00 64 1018.5
20260510021518 18 30 0.0 0.0 0.00 0.00 0.00 65 1018.8
20260510020012 18 167 0.0 9.7 0.00 0.00 0.00 67 1019.0
20260510014508 17 43 0.0 6.4 0.00 0.00 0.00 70 1019.2
20260510013010 16 165 1.6 14.5 0.00 0.00 0.00 73 1019.4
20260510011625 15 60 0.0 0.0 0.00 0.00 0.00 80 1019.5
20260510010047 13 60 0.0 0.0 0.00 0.00 0.00 89 1019.6
20260510004534 12 60 0.0 0.0 0.00 0.00 0.00 94 1019.9
20260510003010 11 60 0.0 0.0 0.00 0.00 0.00 96 1020.1
20260510001506 10 60 0.0 0.0 0.00 0.00 0.00 96 1020.0
20260510000048 8 60 0.0 0.0 0.00 0.00 0.00 96 1020.1
20260509234540 7 60 0.0 0.0 0.00 0.00 0.00 96 1020.1
20260509233018 6 60 0.0 0.0 0.00 0.00 0.00 96 1020.1
20260509231515 5 60 0.0 0.0 0.00 0.00 0.00 96 1020.2
20260509230055 4 60 0.0 0.0 0.00 0.00 0.00 95 1020.2
20260509224549 3 60 0.0 0.0 0.00 0.00 0.00 94 1020.3
20260509223029 2 60 0.0 0.0 0.00 0.00 0.00 94 1020.1
20260509221528 2 60 0.0 0.0 0.00 0.00 0.00 93 1019.9
20260509220002 2 60 0.0 0.0 0.00 0.00 0.00 93 1019.7
20260509214558 1 60 0.0 0.0 0.00 0.00 0.00 93 1019.5
20260509213049 -17 0.0 0.0 0.00 0.00 0.00 1019.3
20260509211603 -17 0.0 0.0 0.00 0.00 0.00 1019.1
20260509210012 -17 0.0 0.0 0.00 0.00 0.00 1018.9
20260509204506 -17 0.0 0.0 0.00 0.00 0.00 1018.7
20260509203055 -17 0.0 0.0 0.00 0.00 0.00 1018.7
20260509201540 -17 0.0 0.0 0.00 0.00 0.00 1018.4
20260509200019 -17 0.0 0.0 0.00 0.00 0.00 1018.2
20260509194514 -17 0.0 0.0 0.00 0.00 0.00 1018.1
20260509193053 -17 0.0 0.0 0.00 0.00 0.00 1017.9
20260509191549 1 60 0.0 0.0 0.00 0.00 0.00 92 1017.7
20260509190028 1 60 0.0 0.0 0.00 0.00 0.00 91 1017.5
20260509184527 1 60 0.0 0.0 0.00 0.00 0.00 91 1017.4
20260509183013 1 60 0.0 0.0 0.00 0.00 0.00 91 1017.2
20260509181506 1 60 0.0 0.0 0.00 0.00 0.00 91 1017.0
20260509180048 1 60 0.0 0.0 0.00 0.00 0.00 91 1016.8
20260509174551 1 60 0.0 0.0 0.00 0.00 0.00 91 1016.8
20260509173027 1 60 0.0 0.0 0.00 0.00 0.00 90 1016.8
20260509171527 1 60 0.0 0.0 0.00 0.00 0.00 90 1016.8
20260509170008 1 60 0.0 0.0 0.00 0.00 0.00 90 1016.7
20260509164506 0 60 0.0 0.0 0.00 0.00 0.00 90 1016.7
20260509163058 0 60 0.0 0.0 0.00 0.00 0.00 90 1016.7
20260509161548 0 60 0.0 0.0 0.00 0.00 0.00 89 1016.6
20260509160029 0 60 0.0 0.0 0.00 0.00 0.00 89 1016.6
20260509154527 0 60 0.0 0.0 0.00 0.00 0.00 89 1016.6
20260509153017 0 60 0.0 0.0 0.00 0.00 0.00 88 1016.6
20260509151506 1 60 0.0 0.0 0.00 0.00 0.00 88 1016.7
20260509150105 1 60 0.0 0.0 0.00 0.00 0.00 88 1016.7
20260509144546 1 60 0.0 0.0 0.00 0.00 0.00 88 1016.7
20260509143047 1 60 0.0 0.0 0.00 0.00 0.00 87 1016.7
20260509141529 1 59 0.0 0.0 0.00 0.00 0.00 87 1016.5
20260509140022 1 60 0.0 0.0 0.00 0.00 0.00 87 1016.5
20260509134502 2 60 0.0 0.0 0.00 0.00 0.00 87 1016.6
20260509133106 2 60 0.0 0.0 0.00 0.00 0.00 86 1016.7
20260509131542 2 60 0.0 0.0 0.00 0.00 0.00 86 1016.7
20260509130044 2 60 0.0 0.0 0.00 0.00 0.00 86 1016.6
20260509124522 2 60 0.0 0.0 0.00 0.00 0.00 86 1016.6
20260509123021 3 59 0.0 0.0 0.00 0.00 0.00 86 1016.7
20260509121503 3 60 0.0 0.0 0.00 0.00 0.00 86 1016.7
20260509120009 3 60 0.0 0.0 0.00 0.00 0.00 86 1016.7
20260509114553 3 60 0.0 0.0 0.00 0.00 0.00 86 1016.7
20260509113044 3 60 0.0 0.0 0.00 0.00 0.00 85 1016.5
20260509111522 4 60 0.0 0.0 0.00 0.00 0.00 85 1016.2
20260509110020 4 60 0.0 0.0 0.00 0.00 0.00 85 1016.1
20260509104501 5 60 0.0 0.0 0.00 0.00 0.00 85 1016.0
20260509103103 5 60 0.0 0.0 0.00 0.00 0.00 85 1015.9
20260509101543 5 60 0.0 0.0 0.00 0.00 0.00 85 1015.7
20260509100044 6 60 0.0 0.0 0.00 0.00 0.00 84 1015.6